Simultaneous Nadir Overpasses (SNOs) Predictions

Prediction of SNOs between LANDSAT-8 and METOP-A Satellite Orbit:

Table of predicted SNOs for the next 14.0 days since TLE Epoch: 8/6/2016
Index Date (LANDSAT-8) Time (LANDSAT-8) Lat,Lon (LANDSAT-8) SZA (LANDSAT-8 ) Date (METOP-A) Time (METOP-A) Lat,Lon (METOP-A) SZA (METOP-A ) Distance(km) Time Diff (sec)
1 08/06/2016 21:50:27 -81.19, 73.52 113.10 08/06/2016 21:50:22 -81.19, 73.58 113.10 1.09 5
2 08/06/2016 22:39:53 81.20,-118.72 66.93 08/06/2016 22:41:01 81.21,-118.62 66.97 1.81 68
3 08/09/2016 16:35:16 81.16, -28.19 67.63 08/09/2016 16:34:03 81.17, -28.19 67.60 0.58 73
4 08/09/2016 17:24:42 -81.18, 139.76 112.32 08/09/2016 17:24:43 -81.18, 139.67 112.33 1.53 1
5 08/09/2016 18:13:59 81.37, -49.11 68.20 08/09/2016 18:15:13 81.28, -49.08 68.17 10.38 74
6 08/12/2016 12:09:31 81.17, 38.35 68.49 08/12/2016 12:08:24 81.17, 38.24 68.45 2.00 67
7 08/12/2016 12:58:57 -81.19,-153.67 111.46 08/12/2016 12:59:03 -81.19,-153.50 111.43 2.92 6
8 08/15/2016 07:43:46 81.17, 104.86 69.38 08/15/2016 07:42:44 81.18, 105.03 69.37 2.92 62
9 08/15/2016 08:33:12 -81.19, -87.13 110.56 08/15/2016 08:33:24 -81.19, -87.08 110.55 0.91 12
10 08/18/2016 03:18:00 81.17, 171.34 70.29 08/18/2016 03:17:04 81.18, 171.43 70.28 1.51 56




NCC Satellite Simultaneous Nadir Overpasses (SNOs) Prediction Service
